sat.trackr.live / text

‹ back to catalog

COSMOS 2490 (RODNIK-S 9)

NORAD 39485 · 2013-076C

PAYLOAD ACTIVE UNKNOWN

§ Identity

Operator
Country
CIS
Launch date
2013-12-25
Launch site
PLMSC
Launch vehicle
Mass (kg)
RCS (m²)
1.67

External: N2YO · Heavens-Above · Gunter

§ Orbital elements

Epoch: 2026-09-15T22:43:42.481344Z

Period
115.86 min
Inclination
82.4788°
Eccentricity
0.0020644
Mean motion
12.42880975 rev/d
Perigee alt
1,478.2 km
Apogee alt
1,510.7 km
Semi-major
7,872.6 km
B*
3.6110e-4
RAAN
111.5860°
Arg perigee
275.4945°
Mean anomaly
84.3779°
Rev number
57,715

§ Raw data

COSMOS 2490 (RODNIK-S 9)1 39485U 13076C   26258.94701946  .00000060  00000+0  36110-3 0  99982 39485  82.4788 111.5860 0020644 275.4945  84.3779 12.42880975577151

JSON: /api/v1/satellites/39485 · /tle

For live sub-satellite position, see the globe view (requires WebGL).

§ Visibility from observer

Set your observer location to see the next 7 days of passes ≥ 10°. The values pass through the URL so the page stays shareable.

No JS? Fill the form by hand. The geolocation button needs JavaScript.

§ Radio — SatNOGS DB

ModeDescriptionDownlinkUplink
FM UHF Unknown 387.175 MHz
FM UHF Unknown 388.687 MHz

2 transmitters · refreshed weekly from db.satnogs.org